BEIJING 1 1 28890U 05043A 26128.22318601 .00000212 00000+0 50278-4 0 9991 2 28890 98.2855 261.2261 0015645 49.9088 310.3483 14.63508892 94804 HUANJING 1A (HJ-1A) 1 33320U 08041A 26128.18045674 .00001177 00000+0 14760-3 0 9994 2 33320 97.6676 115.5731 0017381 270.6683 89.2540 14.83898647952472 HUANJING 1B (HJ-1B) 1 33321U 08041B 26128.19925841 .00001272 00000+0 16025-3 0 9991 2 33321 97.6517 118.8823 0035350 316.8688 42.9757 14.83250078952486 YAOGAN-4 1 33446U 08061A 26127.82309645 .00000810 00000+0 10586-3 0 9991 2 33446 97.9295 61.6373 0013729 196.7371 163.3392 14.83124946939689 DEIMOS-1 1 35681U 09041A 26128.16783824 .00000387 00000+0 64265-4 0 9999 2 35681 97.7364 287.1405 0001300 30.1659 329.9625 14.75195961900986 UK-DMC 2 1 35683U 09041C 26128.22850638 .00000707 00000+0 10992-3 0 9999 2 35683 97.8781 264.1864 0001695 80.9463 279.1938 14.75966668900678 DMC3-FM1 1 40715U 15032A 26128.19994020 .00001153 00000+0 13888-3 0 9991 2 40715 97.6508 354.9329 0005412 168.6106 191.5234 14.85696970583971 DMC3-FM2 1 40716U 15032B 26128.22212941 .00000112 00000+0 18787-4 0 9999 2 40716 97.6563 356.5004 0005703 176.0046 184.1216 14.85697793583972 DMC3-FM3 1 40717U 15032C 26128.17787177 .00000344 00000+0 45568-4 0 9996 2 40717 97.6613 358.1852 0005027 174.2137 185.9138 14.85696509583974